Nutzungsgebühren

Rettungshubschrauber am Flugplatz Konstanz

Lande- und Abstellgebühren

Höchstabfluggewicht
Abstellgebühr
Landegebühr
Bei erhöhtem Lärmschutz
bis 1.000 kg € 3,60 € 10,30 € 5,70
1.000 - 1.200 kg € 4,65 € 12,30 € 7,20
1.200 - 1.400 kg € 5,65 € 18,50 € 10,30
1.400 - 2.000 kg € 6,15 € 25,65 € 14,90
2.000 - 3.000 kg € 10,30 € 34,90 € 20,55
3.000 - 4.000 kg € 15,40 € 92,35 € 73,90
Segelflieger € 2,05
Ultraleicht € 5,15

Service-Gebühren

Früh-/Spätabfertigung
(pro angefangener halber Stunde vor/nach Schließung):
€ 19,40

Live am Platz

Die Bilder unserer Webcams werden alle 5 Minuten aktualisiert.

Sonnenaufgang:

06:12 UTC / 07:12 Lokal

Sonnenuntergang:

17:00 UTC / 18:00 Lokal

METAR (23.02.2018 15:50 UTC):

EDNY 231550Z 02012KT 9999 OVC020 M02/M06 Q1013
MVFR

TAF (23.02.2018 11:00 UTC):

TAF EDNY 231100Z 2312/2412 03010KT 9999 OVC020 TEMPO 2312/2316 04015G25KT PROB30 TEMPO 2402/2407 BKN012 BECMG 2407/2409 04015G30KT

Alle Angaben unverbindlich und ohne Gewähr. Zeiten genähert.

Für den Verkehrslandeplatz Konstanz werden keine offiziellen Wetterinformationen herausgegeben. Daher werden zur Orientierung Daten des nahegelegenen Flughafens Friedrichshafen dargestellt.